map of MDQ home
MDQ - Airport
Location
City:  Mar del Plata, Buenos Aires, Argentina
ICAO:SAZM
IATA:MDQ

Details
Type:Airport (Aerodrome, Airfield)
Use:Public/Civil, Military
Latitude:3756'03"S (-37.934166)
Longitude:5734'24"W (-57.573332)
Datum:WGS 1984
Elevation:71 ft (22 m)
Variation:7.40W (WMM2015 magnetic declination)
-0.15 annual change
Runways:1
Longest:7218 × 197 ft (2200 × 60 m), paved

Time
Time Zone:UTC-3
Local Time:

Weather
METAR:SAZM 291000Z VRB02KT 9000 SCT020 03/01 Q1028
TAF:SAZM 290500Z 2906/3006 16005KT 8000 BKN010 TX11/2918Z TN03/2910Z
BECMG 2906/2908 16005KT 6000 BKN009 PROB40
TEMPO 2910/2912 3000 BR BKN005
BECMG 2913/29155 09010KT 9999 BKN020

Related Locations
Nearby:
Farthest:WEH: 12378 mi / 19920 km
Weihai (Wendeng) [Dashuipo Airport], 37, CN

Find:

   beyond  
but within

Other Information
Maps:
NOTAMs:
Links:
Sources:

  
flag of Argentina
flag of Buenos Aires
  

Sectional Chart

Flight Planning
at skyvector.com

Satellite Image

Google Maps Satellite view

 

Copyright © 2004-2016 Karl L. Swartz. All rights reserved.
The Great Circle Mapper name and logo are trademarks of the Great Circle Mapper.
All other trademarks mentioned herein belong to their respective owners.
Please see credits for attibutions and further copyright information.

  Follow gcmap on Facebook Follow gcmap on Twitter Follow gcmap on Google+ GCmap on LinkedIn

hCard Microformat

Geo Microformat